Flag for Poland Weather past 2 weeks in Tarnów, Poland

Now
61 °F

Sprinkles. Overcast.


Feels Like: 61 °F
Forecast: 50 / 59 °F
Wind: No wind

Location: Tarnow

Current Time: Oct 1, 2014 at 2:59:48 PM

Latest Report: Oct 1, 2014 at 2:00 PM


Visibility: 1 mi

Pressure: 30.29 "Hg

Humidity: 95%

Dew point: 60 °F

Location of TarnówLocation

Historic Weather in Tarnów — Graph

°F

Tarnów temperature yesterday

Maximum temperature yesterday: 72 °F (at 3:00 PM)
Minimum temperature yesterday: 44 °F (at 7:00 AM)
Average temperature yesterday: 58 °F

Past Weeks' High & Low Weather Summary

 TemperatureHumidityPressure
High75 °F (Sep 19, 2:00 PM)100% (Sep 21, 2:00 AM)30.43 "Hg (Sep 21, 2:00 AM)
Low37 °F (Sep 24, 7:00 AM)34% (Sep 19, 2:00 PM)29.66 "Hg (Sep 22, 7:00 AM)
Average55 °F81%30.10 "Hg
* Reported Sep 16 1:00 PM — Oct 1 1:00 PM, Tarnów, Weather by CustomWeather, © 2014

Note: Actual official high and low records may vary slightly from our data, if they occured in-between our weather recording intervals... More about our weather records

Advertising

Tarnów weather history for previous 24 hours

 ConditionsComfort  
Time TempWeatherWind HumidityBarometerVisibility
1:00 PM
Oct 1
61 °FSprinkles. Low clouds.1 mph94%30.29 "Hg1 mi
12:00 PM61 °FSprinkles. Low clouds.1 mph95%30.29 "Hg1 mi
11:00 AM61 °FFog.1 mph95%30.29 "Hg2 mi
10:00 AM60 °FFog.1 mph97%30.29 "Hg1 mi
9:00 AM59 °FLow clouds.1 mph97%30.28 "Hg1 mi
8:00 AM58 °FFog.1 mph97%30.28 "Hg1 mi
7:00 AM58 °FFog.1 mph97%30.27 "Hg1 mi
6:00 AM58 °FFog.1 mph96%30.27 "Hg0 mi
5:00 AM58 °FSprinkles. Overcast.1 mph96%30.27 "Hg1 mi
4:00 AM58 °FSprinkles. Overcast.1 mph96%30.27 "Hg1 mi
3:00 AM58 °FFog.1 mph96%30.27 "Hg2 mi
2:00 AM58 °FOvercast.No wind95%30.27 "Hg2 mi
1:00 AM59 °FLight rain. Overcast.No wind95%30.27 "Hg2 mi
12:00 AM59 °FFog.No wind94%30.27 "Hg2 mi
11:00 PM
Sep 30
59 °FFog.No wind92%30.27 "Hg2 mi
10:00 PM61 °FOvercast.No wind91%30.26 "Hg2 mi
9:00 PM62 °FFog.1 mph87%30.25 "Hg4 mi
8:00 PM65 °FOvercast.1 mph79%30.25 "Hg6 mi
7:00 PM65 °FOvercast.1 mph76%30.24 "Hg6 mi
6:00 PM67 °FOvercast.1 mph71%30.22 "Hg9 mi
5:00 PM69 °FOvercast.1 mph64%30.22 "Hg16 mi
4:00 PM71 °FPartly sunny.1 mph56%30.22 "Hg19 mi
3:00 PM72 °FScattered clouds.2 mph52%30.22 "Hg19 mi
2:00 PM71 °FPassing clouds.1 mph54%30.23 "Hg19 mi
Weather by CustomWeather, © 2014

See weather overviewHow to use our weather pages